Temperature
17 17 18 18 21 22 22 22 22 21 21 19 19 20 21 21 21 20 15 15 15 15 15 15 15 14 14 14 14 14 14 14 14 14 14 14 14 14 14 14 14 14 14 14 14 14 14 14 14
17 17 18 19 22 22 22 22 21 21 20 17 18 18 19 19 16 15 15 15 15 15 14 14 14 14 14 14 14 14 14 15 14 14 14 14 14 14 14 14 14 14 14 14 14 14 14 14 14
17 17 18 21 21 23 22 21 21 19 17 18 18 17 18 17 15 14 14 15 14 14 14 14 14 14 14 14 14 14 14 14 14 14 14 14 14 14 14 14 14 14 14 13 13 13 13 13 14
16 17 19 21 21 21 21 21 19 19 18 17 18 18 16 14 14 14 15 14 14 14 14 14 14 14 14 14 14 14 14 14 14 14 14 14 14 14 14 14 14 13 13 13 13 13 13 13 13
16 18 20 20 20 20 20 19 18 19 19 18 17 18 17 14 14 14 15 14 14 14 14 14 14 14 14 14 14 14 14 14 14 14 14 14 14 14 13 13 13 13 13 13 13 13 13 13 13
17 19 20 21 20 19 19 17 18 19 18 17 17 18 16 14 14 14 14 14 13 13 13 14 14 14 14 14 14 14 14 14 14 14 14 14 13 13 13 13 13 13 13 13 13 13 13 13 13
17 19 20 20 20 19 18 17 18 19 18 17 16 18 16 14 14 14 14 13 13 13 13 13 13 13 13 13 13 13 13 13 13 13 13 13 13 13 13 13 13 13 13 13 13 13 13 13 13
15 18 18 19 19 19 17 16 16 17 17 15 15 17 16 13 13 13 13 13 13 13 13 13 13 13 13 13 13 13 13 13 13 13 13 13 13 13 13 13 13 13 13 13 13 13 13 12 12
14 18 18 18 18 18 16 16 15 13 14 14 13 14 13 13 13 13 13 13 13 13 13 12 12 12 13 13 13 13 13 13 13 13 13 12 12 12 12 12 12 12 12 12 12 12 12 12 12
15 17 18 17 17 17 15 15 15 15 15 15 14 13 13 13 12 12 12 12 12 12 12 12 12 12 12 12 12 12 12 12 12 12 12 12 12 12 12 12 12 12 12 12 12 12 12 12 11
15 16 15 14 14 14 14 14 14 15 16 15 15 13 12 12 12 12 12 12 12 12 12 12 12 12 12 12 12 12 12 12 12 12 12 12 12 12 12 12 11 11 11 11 11 11 11 11 11
14 13 13 13 12 13 13 13 14 14 14 13 13 12 12 12 12 12 12 12 12 12 12 12 12 12 12 12 12 12 12 12 12 12 12 11 11 11 11 11 11 11 11 11 11 11 11 11 11
13 13 11 11 11 11 12 13 13 13 12 12 12 12 11 12 12 11 11 12 11 12 12 12 11 11 11 11 11 11 11 11 11 11 11 11 11 11 11 11 11 11 11 11 11 11 10 10 10
12 12 11 11 11 11 12 12 12 12 11 11 11 11 11 11 11 11 11 11 11 11 11 11 11 11 11 11 11 11 11 11 11 11 11 11 11 11 11 11 11 10 10 10 10 10 10 10 10
11 12 12 12 11 11 11 13 13 12 11 11 11 11 11 11 11 11 11 11 11 11 11 11 11 11 11 11 11 11 11 10 11 10 10 10 10 10 10 10 10 10 10 10 10 10 10 10 10
12 13 13 12 11 11 12 14 14 11 11 11 11 11 10 10 10 10 11 11 11 10 11 11 11 11 10 10 10 10 10 10 10 10 10 10 10 10 10 10 10 10 10 10 9 9 9 9 9
13 13 13 13 11 11 12 13 13 10 10 11 11 11 10 10 10 10 10 10 10 10 10 10 10 10 10 10 10 10 9 9 9 9 10 9 9 9 9 9 9 9 9 9 9 9 9 9 9
13 13 13 13 11 11 11 12 13 11 10 11 11 10 10 9 9 10 10 10 10 10 10 10 10 10 9 9 9 9 9 9 9 9 9 9 9 9 9 9 9 9 9 8 8 8 8 8 8
12 12 12 12 10 10 11 11 12 11 10 10 10 10 9 9 9 9 9 9 9 9 9 9 9 9 9 9 9 9 8 8 8 9 9 9 8 9 8 8 8 8 8 8 8 8 8 7 7
10 11 12 11 9 10 10 11 12 11 10 10 10 9 9 8 8 8 8 9 9 9 9 9 9 9 8 8 8 8 8 8 8 8 8 8 8 8 8 8 8 8 7 7 7 7 7 7 7
10 10 11 10 9 9 9 12 12 12 10 9 9 9 8 8 8 8 8 8 8 8 8 8 8 8 8 8 8 8 8 7 7 7 7 7 7 7 7 7 7 7 7 7 7 7 6 6 6
10 9 9 9 10 10 10 12 13 12 11 10 9 8 8 8 7 7 7 7 8 8 8 8 8 7 7 7 7 7 7 7 7 7 7 7 7 7 6 7 7 6 6 6 6 6 6 6 5
9 8 8 8 9 9 9 9 13 11 11 11 10 9 8 7 7 7 7 7 7 7 7 7 7 7 7 7 7 7 6 6 6 6 6 6 6 6 6 6 6 6 6 6 6 5 5 5 5
7 8 8 8 8 8 9 10 12 12 11 11 10 8 7 7 6 6 7 7 6 7 7 7 6 6 6 6 6 6 6 6 6 6 6 6 6 5 5 5 5 5 5 5 5 5 5 4 4
7 8 9 9 9 10 9 9 11 12 10 10 9 8 7 6 6 6 6 6 6 6 6 6 6 6 6 6 6 6 6 5 5 5 5 5 5 5 5 5 5 5 5 5 5 5 4 4 4
7 9 9 10 11 11 8 9 11 10 8 7 7 7 6 5 5 5 5 5 5 5 5 5 5 5 5 5 5 5 5 5 5 5 5 5 4 4 4 4 4 4 4 4 4 4 3 3 3
7 8 8 8 7 8 10 10 10 9 8 7 7 6 6 5 5 4 5 5 5 5 5 5 5 5 5 5 5 5 5 5 4 4 4 4 4 4 4 4 4 4 4 3 3 3 3 3 3
7 7 7 7 8 10 10 10 11 10 9 8 7 6 5 5 4 4 4 4 4 4 4 4 4 4 4 4 4 4 4 4 4 4 4 4 4 3 3 3 3 3 3 3 3 3 2 2 2
5 5 6 7 7 9 10 11 9 9 8 8 7 6 5 4 4 3 3 4 4 4 4 4 4 4 4 4 4 4 4 4 4 4 4 3 3 3 3 3 2 2 2 2 2 2 2 2 2
5 6 6 7 6 6 8 10 8 7 7 6 6 5 4 3 3 3 3 3 3 3 3 3 3 3 3 3 3 3 3 3 3 3 3 3 3 2 2 2 2 2 2 2 2 2 2 1 1
Wind_Speed
6 3 2 3 4 5 7 5 3 4 3 1 1 2 1 1 1 2 3 3 3 5 6 8 7 7 7 7 7 7 7 8 8 8 7 7 7 7 8 8 8 8 8 8 8 8 9 9 9
4 2 3 3 6 8 7 6 6 4 2 3 2 2 2 1 2 3 3 3 4 5 6 6 7 6 7 7 7 7 7 7 7 7 7 6 7 7 7 7 7 8 8 7 7 7 8 8 8
2 2 2 3 6 9 6 4 5 3 3 3 2 1 1 1 2 2 2 3 5 5 5 6 6 6 7 7 7 7 7 7 7 7 6 6 6 7 7 7 7 7 7 7 7 7 7 7 7
2 2 3 6 9 7 4 3 3 5 4 2 2 2 2 2 1 2 2 4 5 5 5 6 6 5 6 6 6 6 6 6 6 6 6 5 6 6 6 6 6 6 6 7 7 7 6 6 6
2 3 5 7 9 5 3 2 4 5 4 3 3 2 2 2 2 2 3 4 5 5 4 5 5 5 5 5 5 5 5 5 5 5 5 5 6 6 6 6 6 6 5 5 5 5 5 5 5
3 4 7 10 9 5 4 4 4 5 4 3 3 3 2 3 2 2 3 4 4 4 3 4 5 5 5 5 4 4 4 4 4 5 5 5 6 6 6 6 5 5 5 5 5 4 4 4 4
4 4 7 8 8 7 5 4 5 5 5 3 2 3 3 4 2 3 3 3 3 3 3 3 3 4 5 5 4 3 2 3 3 4 5 5 6 6 6 5 5 4 4 4 4 3 3 3 3
2 3 6 7 8 7 4 4 2 4 3 1 2 3 2 3 3 3 3 3 2 2 1 2 2 2 4 5 5 4 3 2 1 2 3 5 6 6 6 5 4 4 4 4 3 3 3 2 2
2 5 8 8 7 5 5 5 2 1 2 2 2 1 1 3 4 4 3 2 2 1 1 1 1 2 2 3 4 4 4 3 2 2 2 4 5 5 5 4 3 3 3 3 3 3 2 1 2
4 7 7 3 3 3 4 4 3 4 5 4 3 2 2 5 5 5 4 4 3 2 1 0 1 1 2 2 3 2 2 2 1 1 1 3 3 3 3 4 3 3 3 3 3 3 2 2 2
3 5 3 2 1 2 3 3 3 5 6 6 5 4 4 6 5 5 5 4 3 2 1 1 1 1 2 2 1 1 1 1 1 1 1 1 2 2 2 3 3 3 4 3 3 3 2 2 2
3 3 2 1 1 2 3 3 4 6 5 3 3 3 5 6 6 6 5 4 3 2 2 2 1 1 1 1 1 1 1 1 0 0 0 1 1 2 2 2 2 2 2 2 2 2 2 2 3
5 3 2 1 1 2 3 5 5 6 6 3 3 4 6 7 6 5 4 4 3 3 3 2 2 2 2 2 2 2 2 1 1 1 1 1 1 2 2 2 2 2 2 2 2 3 3 3 3
3 3 3 3 3 3 4 5 5 6 4 3 4 5 5 5 5 5 5 5 4 4 3 3 2 2 2 2 2 1 1 1 1 1 1 1 1 1 2 2 2 2 3 3 3 3 3 3 3
2 3 4 3 3 2 3 7 8 5 4 4 5 4 4 4 4 5 5 5 4 4 3 3 2 2 2 2 2 1 1 2 2 1 1 2 2 2 2 2 2 2 2 3 3 3 4 4 4
3 5 5 3 3 3 6 10 5 3 5 6 6 5 5 4 4 4 4 4 4 4 4 3 2 2 2 1 1 1 2 2 2 1 1 2 2 2 2 2 2 2 2 3 3 3 3 4 4
5 6 7 4 3 3 6 9 4 3 6 7 7 6 6 5 4 3 3 3 3 4 4 3 2 2 2 2 1 1 1 1 1 1 1 1 2 2 2 2 2 2 2 2 3 3 3 4 5
6 7 7 7 3 5 8 11 8 6 8 9 8 7 6 5 4 3 2 3 3 3 3 3 2 2 2 1 1 1 0 1 1 0 1 1 1 2 2 2 2 2 2 2 2 3 3 4 4
4 6 7 5 2 5 10 13 12 9 8 9 9 8 7 6 4 3 2 2 3 3 3 3 2 2 2 1 1 1 0 0 1 1 1 1 1 1 1 1 2 2 2 3 3 3 4 4 4
5 6 6 3 1 4 8 13 12 9 8 8 8 8 7 6 5 3 3 3 3 3 3 3 3 2 2 1 1 1 0 0 0 1 1 1 1 1 1 1 2 2 2 3 3 3 3 3 3
7 7 6 5 4 4 6 9 8 6 7 7 7 7 7 6 6 5 4 3 3 3 3 2 3 3 2 2 2 2 1 0 0 1 1 2 2 2 1 2 2 2 3 3 3 4 4 4 4
7 4 5 5 5 4 3 7 7 5 6 6 6 6 6 6 6 5 4 4 3 3 3 3 2 3 3 3 3 2 1 1 1 1 1 2 2 2 2 2 2 2 2 3 3 4 4 5 4
3 2 3 4 5 5 5 6 7 3 6 7 6 6 6 6 5 5 4 4 4 3 3 3 3 3 2 2 3 2 1 1 1 0 0 1 2 2 2 2 2 3 3 3 4 4 5 4 5
3 2 2 3 4 6 7 8 7 4 6 5 5 6 5 5 4 4 4 3 3 3 3 3 3 3 3 2 2 3 2 1 1 1 1 1 1 2 2 3 3 3 3 4 4 4 5 5 6
4 3 2 3 4 6 3 7 7 4 4 5 5 5 4 3 3 4 4 3 3 3 3 3 3 3 3 3 2 2 2 2 2 2 2 1 1 2 3 3 3 3 3 4 4 5 5 6 6
6 6 4 4 5 4 4 7 5 2 3 4 4 4 3 3 3 3 3 3 3 3 3 3 3 3 3 3 3 2 2 2 2 3 2 2 2 2 3 3 3 4 4 4 4 4 5 5 5
4 5 3 2 2 5 6 5 6 3 4 3 3 2 3 3 3 3 3 3 3 3 3 4 4 3 3 3 3 3 3 3 3 3 2 2 2 2 3 3 3 3 3 4 4 4 5 5 5
2 3 3 4 4 6 6 6 4 3 3 2 2 2 2 2 2 2 2 3 3 3 3 3 3 3 3 3 3 3 3 3 3 2 2 2 2 3 3 3 3 3 3 4 4 4 4 5 5
5 4 4 4 4 5 6 4 1 3 2 2 2 1 1 2 2 2 2 2 2 2 3 3 3 3 2 3 3 3 2 2 2 2 2 2 2 3 3 3 3 3 3 4 4 4 4 5 5
5 6 7 5 5 4 5 5 2 1 2 2 2 2 2 2 2 2 2 1 1 2 2 2 2 2 2 2 2 2 2 2 2 2 2 2 2 3 3 3 3 3 3 3 4 4 4 4 5
Wind_Direction
323 307 251 227 215 219 225 206 199 178 176 142 144 219 228 263 316 63 82 112 120 142 149 154 150 147 146 141 135 133 134 133 130 126 118 114 113 108 104 99 96 91 86 84 86 88 87 84 81
316 287 225 223 229 224 216 204 201 192 142 136 158 202 205 142 45 86 111 122 137 138 145 148 140 145 142 137 135 136 138 137 135 130 125 120 119 111 107 101 96 91 85 80 81 87 89 87 84
282 277 224 210 227 232 211 180 187 164 159 183 168 187 269 110 108 112 95 141 140 132 134 129 132 145 141 140 135 135 139 136 137 134 132 127 127 121 114 107 101 94 87 81 79 81 83 84 84
240 198 212 226 224 230 226 162 165 169 172 189 192 159 138 63 67 89 114 145 141 133 129 125 132 138 139 138 139 135 144 145 143 138 135 132 136 131 122 115 110 102 94 89 84 84 83 82 80
235 213 210 222 228 218 213 201 187 195 183 175 198 189 154 109 71 100 132 146 144 137 127 127 130 136 136 136 141 144 141 152 154 153 146 143 140 137 128 121 115 107 101 95 92 87 85 81 77
191 215 223 225 220 208 205 203 200 208 193 179 194 190 146 116 111 115 137 148 143 138 134 129 132 135 138 139 139 144 153 152 165 167 162 157 149 140 132 124 118 112 109 102 96 91 86 78 75
210 211 230 229 222 216 203 192 210 210 205 197 197 191 153 143 113 129 138 138 133 128 133 128 152 151 143 132 128 127 138 169 178 179 170 164 156 148 141 135 131 122 118 113 108 100 90 79 76
230 209 219 221 221 219 178 182 210 225 216 142 208 212 175 147 134 137 134 132 130 133 142 135 135 149 154 144 119 113 109 104 143 151 171 170 160 153 144 149 138 134 130 126 122 114 99 82 75
216 219 224 218 216 205 173 188 180 209 190 189 212 269 44 131 151 149 146 150 148 155 175 145 137 131 144 138 127 126 116 96 120 139 136 182 178 168 158 139 130 135 136 135 130 120 115 122 135
204 222 228 220 215 189 179 204 198 198 211 214 207 194 157 160 173 178 183 186 187 188 184 180 146 137 139 138 139 146 147 144 166 181 169 199 190 173 160 132 135 141 143 146 141 138 163 217 203
204 225 215 206 200 194 198 210 210 220 229 232 229 205 178 180 188 198 201 201 200 198 197 207 190 149 142 138 131 145 164 170 211 244 197 200 179 158 163 160 159 165 170 170 162 187 213 240 255
199 219 221 212 208 217 222 219 224 235 258 286 256 211 197 200 203 208 210 212 209 207 211 216 207 191 169 167 169 169 175 168 177 211 226 214 197 180 175 190 193 202 199 192 209 230 239 246 249
213 211 216 230 249 253 242 241 253 252 266 264 226 210 213 213 215 217 216 217 213 215 216 219 211 213 191 189 196 194 182 178 163 163 202 240 220 199 189 198 207 216 215 217 229 236 243 253 255
195 200 230 255 247 243 238 255 248 254 249 224 212 214 217 221 222 221 216 216 217 218 217 214 204 210 201 197 196 201 191 182 175 167 184 226 249 225 212 204 212 227 225 229 237 245 247 250 257
187 214 237 233 230 217 230 250 237 242 227 230 227 222 222 227 225 227 227 227 224 220 219 214 207 196 202 201 201 197 197 198 186 193 199 214 238 234 228 221 221 231 241 238 243 249 252 257 261
192 216 229 206 223 218 228 251 228 213 224 238 240 236 233 235 236 232 227 226 224 218 213 205 199 194 192 206 198 185 182 197 188 201 208 215 230 229 226 219 228 237 242 244 240 250 259 261 266
203 224 229 217 207 222 227 255 246 226 237 244 244 240 237 238 241 236 226 220 219 213 206 193 183 189 190 181 170 165 168 170 171 195 198 219 234 223 229 231 239 243 246 251 250 249 258 266 271
215 227 233 233 225 241 244 256 262 253 248 251 249 245 239 237 237 234 220 210 207 202 195 189 179 176 173 168 143 117 110 114 86 156 185 206 237 218 225 236 245 251 246 247 258 259 262 266 273
231 231 246 252 282 256 252 263 269 261 253 251 247 241 237 237 236 229 217 205 190 184 182 177 167 157 149 163 171 157 294 319 83 48 52 169 238 223 213 240 239 242 244 246 251 259 266 270 278
227 239 251 263 288 268 274 272 266 250 243 247 246 240 233 230 227 225 212 198 190 188 187 178 166 161 162 170 170 178 212 279 22 46 37 22 344 299 238 251 251 248 250 247 248 250 260 264 262
232 241 250 265 295 258 287 271 242 237 238 246 246 243 233 225 225 222 214 201 194 193 195 189 173 170 171 148 126 123 117 44 359 27 18 2 358 354 308 263 263 253 247 245 251 247 249 255 255
235 236 244 255 264 260 267 278 254 243 243 238 238 230 227 222 222 222 219 204 200 202 196 191 182 173 170 162 162 168 174 242 294 323 333 342 346 339 322 298 275 268 257 253 254 251 253 251 254
224 206 225 243 249 263 235 253 266 239 248 240 236 229 226 221 221 224 224 213 208 201 198 193 182 171 167 170 170 177 182 221 257 287 297 338 342 332 322 303 284 272 264 259 257 254 253 251 253
175 158 173 207 228 249 230 233 265 237 250 255 239 229 227 226 225 229 226 215 210 203 199 196 188 182 175 180 188 184 187 204 223 260 266 308 320 313 317 304 285 277 272 265 261 257 255 254 254
193 198 229 223 222 241 193 230 254 271 262 264 257 244 231 227 228 231 230 218 209 208 204 199 192 195 193 192 199 201 202 213 225 239 251 275 283 290 294 298 289 282 278 274 266 260 256 255 254
206 217 225 244 249 254 211 235 251 301 294 283 268 253 237 233 233 238 235 223 214 211 206 203 202 207 207 206 214 217 213 221 235 238 243 253 262 264 279 286 284 280 277 276 267 261 259 257 254
192 213 251 252 275 266 242 251 275 261 269 263 253 240 235 244 247 249 239 229 221 219 213 204 205 213 218 220 221 220 217 226 236 244 243 253 265 274 277 276 277 280 278 271 269 260 259 261 260
241 181 182 209 238 255 251 248 255 248 254 256 252 244 252 262 264 264 246 229 228 229 228 216 213 218 225 228 226 221 223 229 234 243 250 256 268 276 276 277 278 279 279 276 272 270 268 264 261
176 191 211 214 246 252 262 253 197 253 278 265 270 273 271 281 273 272 266 232 223 221 223 223 222 221 225 228 229 225 225 229 236 245 255 265 272 272 275 276 278 278 279 281 276 270 267 262 264
227 213 199 216 226 237 263 267 85 248 292 285 290 304 299 283 282 278 280 272 231 223 229 232 233 229 232 228 224 226 230 229 237 249 259 267 270 274 279 279 277 283 285 283 280 281 273 266 269
Height
1511 1511 1512 1514 1513 1509 1507 1506 1507 1509 1511 1514 1515 1514 1512 1512 1514 1520 1521 1518 1519 1520 1522 1523 1524 1525 1526 1527 1528 1529 1529 1529 1530 1530 1530 1530 1530 1530 1530 1530 1530 1530 1530 1530 1529 1529 1529 1529 1528
1510 1512 1514 1514 1508 1507 1506 1505 1507 1509 1512 1515 1515 1515 1515 1516 1518 1518 1518 1518 1519 1521 1522 1523 1524 1525 1526 1527 1528 1529 1529 1529 1530 1530 1530 1530 1530 1530 1530 1530 1530 1530 1530 1530 1530 1530 1529 1529 1529
1510 1511 1514 1510 1506 1502 1503 1505 1507 1512 1514 1515 1515 1516 1516 1517 1518 1518 1518 1518 1519 1521 1522 1522 1523 1525 1526 1527 1528 1528 1529 1529 1530 1530 1530 1530 1531 1531 1531 1531 1530 1530 1530 1530 1530 1530 1529 1529 1529
1511 1513 1513 1508 1505 1504 1503 1506 1510 1512 1514 1515 1515 1515 1517 1518 1518 1517 1517 1518 1520 1521 1522 1522 1523 1524 1525 1526 1527 1528 1529 1529 1529 1530 1530 1530 1530 1530 1530 1530 1530 1530 1530 1530 1530 1530 1530 1529 1529
1511 1512 1508 1506 1505 1505 1507 1510 1511 1510 1512 1514 1515 1514 1516 1517 1516 1516 1517 1518 1519 1520 1521 1522 1522 1524 1525 1526 1526 1527 1528 1528 1529 1529 1529 1530 1530 1530 1530 1530 1530 1530 1530 1530 1530 1530 1530 1529 1529
1512 1509 1505 1503 1502 1506 1508 1511 1511 1510 1511 1514 1515 1514 1516 1516 1516 1516 1517 1518 1519 1520 1521 1521 1522 1523 1524 1525 1526 1526 1527 1527 1528 1528 1529 1529 1529 1529 1529 1529 1529 1529 1529 1529 1529 1529 1529 1529 1529
1510 1506 1502 1500 1502 1505 1508 1511 1510 1509 1510 1513 1514 1514 1515 1516 1515 1516 1517 1517 1518 1519 1520 1520 1521 1522 1523 1523 1524 1525 1525 1526 1526 1527 1527 1528 1528 1528 1528 1528 1528 1528 1528 1528 1528 1529 1528 1528 1528
1508 1507 1504 1503 1502 1503 1508 1510 1511 1511 1511 1513 1514 1513 1514 1515 1514 1515 1516 1517 1517 1518 1519 1519 1520 1521 1521 1522 1522 1523 1524 1524 1525 1525 1526 1526 1527 1527 1527 1527 1527 1527 1527 1527 1527 1527 1527 1527 1527
1508 1507 1502 1501 1502 1503 1508 1509 1511 1511 1511 1512 1512 1513 1513 1513 1513 1514 1515 1516 1516 1517 1518 1518 1519 1519 1520 1520 1521 1521 1522 1523 1523 1523 1524 1524 1525 1525 1525 1526 1526 1526 1526 1526 1526 1526 1526 1526 1526
1507 1503 1500 1503 1504 1504 1507 1508 1510 1510 1510 1510 1511 1511 1511 1511 1512 1513 1514 1514 1515 1515 1516 1517 1517 1517 1518 1518 1519 1519 1520 1521 1521 1522 1522 1522 1523 1524 1524 1524 1524 1524 1524 1525 1525 1525 1525 1525 1525
1506 1503 1504 1506 1507 1507 1508 1509 1509 1508 1507 1508 1509 1510 1510 1510 1511 1512 1512 1513 1513 1514 1514 1515 1515 1516 1516 1516 1517 1517 1518 1518 1519 1519 1520 1520 1521 1521 1522 1522 1522 1523 1523 1523 1523 1523 1523 1523 1523
1506 1506 1507 1507 1508 1508 1508 1508 1508 1507 1506 1507 1507 1508 1508 1509 1509 1510 1511 1511 1512 1512 1512 1513 1513 1514 1514 1515 1515 1515 1515 1516 1516 1517 1518 1518 1519 1519 1520 1520 1520 1521 1521 1521 1521 1521 1521 1521 1521
1505 1506 1507 1508 1508 1508 1508 1507 1507 1505 1505 1505 1505 1506 1507 1507 1508 1509 1509 1510 1510 1510 1511 1511 1511 1512 1512 1512 1513 1513 1513 1513 1514 1514 1515 1515 1516 1517 1517 1518 1518 1518 1518 1518 1518 1519 1519 1519 1519
1505 1506 1507 1507 1507 1507 1507 1506 1506 1502 1504 1504 1504 1504 1505 1505 1506 1506 1507 1507 1508 1508 1509 1509 1509 1510 1510 1510 1510 1510 1510 1511 1511 1512 1512 1513 1513 1514 1515 1515 1516 1516 1516 1516 1516 1516 1516 1516 1516
1506 1506 1505 1506 1506 1507 1507 1503 1502 1502 1502 1503 1502 1502 1502 1503 1503 1504 1504 1505 1505 1506 1506 1506 1507 1507 1507 1507 1507 1507 1507 1508 1508 1509 1510 1510 1511 1511 1512 1512 1513 1513 1513 1513 1513 1513 1513 1513 1513
1504 1503 1500 1503 1505 1505 1507 1496 1498 1500 1500 1500 1500 1500 1500 1501 1501 1501 1502 1502 1503 1503 1503 1504 1504 1504 1505 1505 1505 1504 1504 1505 1505 1506 1507 1508 1508 1508 1509 1509 1510 1510 1510 1510 1510 1510 1510 1510 1509
1500 1497 1496 1500 1503 1503 1502 1494 1497 1498 1498 1498 1498 1498 1498 1498 1499 1499 1499 1499 1500 1500 1501 1501 1501 1502 1502 1502 1502 1501 1501 1502 1502 1503 1504 1505 1505 1505 1506 1506 1506 1507 1507 1507 1507 1507 1507 1506 1506
1495 1494 1495 1496 1500 1502 1499 1494 1494 1496 1496 1495 1495 1495 1496 1495 1496 1496 1497 1497 1497 1498 1498 1499 1499 1499 1499 1499 1499 1499 1499 1499 1499 1500 1501 1502 1502 1502 1502 1502 1503 1503 1503 1503 1503 1503 1503 1503 1502
1497 1496 1495 1497 1501 1501 1496 1492 1491 1492 1492 1492 1492 1492 1493 1493 1494 1494 1494 1495 1495 1495 1496 1496 1496 1496 1496 1496 1497 1497 1496 1496 1497 1497 1498 1498 1499 1499 1499 1499 1499 1499 1500 1500 1499 1499 1499 1499 1499
1499 1498 1496 1498 1502 1500 1495 1490 1486 1488 1488 1488 1489 1489 1490 1490 1491 1491 1491 1492 1493 1493 1494 1494 1493 1494 1494 1495 1495 1494 1494 1494 1494 1494 1495 1495 1495 1495 1496 1496 1496 1496 1496 1496 1496 1496 1495 1495 1495
1499 1498 1496 1498 1500 1500 1498 1483 1480 1482 1485 1486 1486 1486 1487 1487 1488 1488 1489 1489 1490 1490 1491 1491 1491 1491 1492 1492 1492 1492 1492 1492 1492 1491 1491 1492 1492 1492 1492 1492 1493 1493 1493 1492 1492 1492 1492 1492 1492
1496 1500 1501 1501 1499 1493 1497 1484 1472 1477 1479 1481 1482 1483 1484 1484 1485 1485 1486 1486 1487 1488 1488 1488 1489 1489 1490 1490 1490 1489 1489 1489 1489 1488 1488 1489 1489 1489 1489 1489 1489 1489 1489 1489 1488 1488 1488 1488 1488
1498 1501 1502 1501 1500 1498 1494 1493 1471 1475 1475 1476 1478 1480 1481 1482 1482 1483 1483 1484 1484 1485 1485 1485 1486 1486 1487 1487 1487 1487 1487 1487 1487 1486 1486 1486 1486 1486 1486 1486 1486 1486 1485 1485 1485 1485 1484 1484 1484
1502 1502 1502 1502 1500 1497 1489 1488 1470 1469 1471 1471 1475 1477 1478 1479 1480 1480 1480 1481 1482 1482 1482 1483 1483 1484 1484 1484 1485 1484 1484 1484 1484 1484 1483 1483 1483 1483 1483 1483 1483 1483 1482 1481 1481 1481 1480 1480 1479
1501 1498 1495 1492 1491 1482 1488 1486 1472 1469 1472 1473 1473 1475 1476 1477 1478 1477 1478 1478 1479 1479 1479 1480 1480 1480 1481 1481 1482 1482 1481 1481 1481 1481 1481 1481 1480 1481 1480 1480 1480 1479 1478 1477 1477 1477 1476 1476 1475
1497 1494 1491 1486 1479 1474 1488 1480 1468 1471 1473 1473 1474 1474 1475 1475 1475 1475 1475 1476 1476 1476 1476 1477 1477 1477 1478 1478 1478 1479 1478 1478 1479 1479 1478 1478 1478 1478 1477 1476 1476 1475 1474 1473 1473 1472 1472 1471 1470
1496 1494 1495 1494 1497 1489 1473 1472 1470 1470 1471 1472 1472 1472 1472 1473 1473 1473 1473 1473 1473 1473 1473 1474 1474 1475 1475 1475 1476 1476 1476 1476 1476 1476 1475 1475 1475 1474 1473 1473 1472 1471 1470 1469 1469 1468 1468 1467 1466
1497 1495 1497 1494 1488 1476 1467 1469 1464 1465 1466 1469 1470 1471 1471 1472 1471 1471 1470 1470 1471 1471 1471 1471 1471 1472 1472 1472 1473 1473 1473 1473 1473 1473 1472 1471 1471 1471 1470 1469 1468 1467 1466 1466 1465 1464 1463 1463 1462
1498 1499 1495 1491 1489 1478 1468 1462 1464 1465 1467 1468 1470 1470 1471 1471 1470 1470 1469 1468 1469 1469 1469 1469 1469 1469 1469 1470 1470 1470 1470 1470 1470 1469 1469 1468 1468 1467 1466 1465 1465 1464 1463 1462 1461 1460 1459 1459 1458
1495 1493 1493 1490 1489 1488 1475 1467 1466 1468 1469 1469 1470 1470 1470 1470 1469 1469 1468 1467 1467 1467 1466 1466 1466 1466 1466 1467 1467 1467 1467 1467 1467 1466 1466 1465 1465 1464 1463 1462 1461 1460 1459 1458 1457 1457 1456 1455 1454